Miles City, MT

5:48 PM MDT on April 27, 2017 (GMT -0600)
Wiley

Weather History for KMLS - April, 2013

Change the Weather History Date:

Sunday, April 21, 2013

  Actual Average Record
Temperature  
Mean Temperature 38 °F 48 °F  
Max Temperature 45 °F 61 °F 92 °F (1980)
Min Temperature 30 °F 35 °F 12 °F (2008)
Degree Days  
Heating Degree Days 27 17  
Month to date heating degree days 561 431  
Since 1 July heating degree days 6731 7106  
Cooling Degree Days 0 0  
Month to date cooling degree days 0 0  
Year to date cooling degree days 0 0  
Moisture  
Dew Point 29 °F    
Average Humidity 73    
Maximum Humidity 92    
Minimum Humidity 54    
Precipitation  
Precipitation 0.08 in 0.05 in 1.22 in (1999)
Month to date precipitation 1.25 0.85  
Year to date precipitation 1.81 2.00  
Sea Level Pressure  
Sea Level Pressure 30.13 in    
Wind  
Wind Speed 13 mph (NNW)    
Max Wind Speed 25 mph    
Max Gust Speed 33 mph    
Visibility 6 miles    
Events Fog , Snow    
T = Trace of Precipitation, MM = Missing Value Source: NWS Daily Summary

Daily Weather History Graph

Daily Weather History Graph

Search for Another Location

Airport or City:

Trip Planner

Search our weather history database for the weather conditions in past years. The results will help you decide how hot, cold, wet, or windy it might be!

Date:

Astronomy

Apr. 21, 2013 Rise Set
Actual Time 6:05 AM MDT 7:59 PM MDT
Civil Twilight 5:33 AM MDT 8:32 PM MDT
Nautical Twilight 4:53 AM MDT 9:11 PM MDT
Astronomical Twilight 4:10 AM MDT 9:55 PM MDT
Moon 3:34 PM MDT (4/21) 3:44 AM MDT (4/21)
Length of Visible Light 14h 58m
Length of Day
13h 54m
Waxing Gibbous, 80% of the Moon is Illuminated
Apr 21
Waxing Gibbous
Apr 25
Full
May 2
Last Quarter
May 9
New
May 17
First Quarter

Hourly Weather History & Observations

Time (MDT) Temp. Windchill Dew Point Humidity Pressure Visibility Wind Dir Wind Speed Gust Speed Precip Events Conditions
12:53 AM 44.1 °F 39.5 °F 39.9 °F 85% 29.91 in 10.0 mi WNW 8.1 mph - 0.00 in   Overcast
1:43 AM 44.6 °F 39.2 °F 39.2 °F 81% 29.91 in 10.0 mi WNW 10.4 mph - 0.00 in   Overcast
1:53 AM 44.1 °F 38.6 °F 39.9 °F 85% 29.92 in 10.0 mi NW 10.4 mph - 0.00 in   Overcast
2:01 AM 44.6 °F 35.9 °F 39.2 °F 81% 29.92 in 10.0 mi NW 23.0 mph 27.6 mph N/A   Overcast
2:18 AM 42.8 °F 33.8 °F 37.4 °F 81% 29.94 in 10.0 mi NW 21.9 mph - N/A   Overcast
2:53 AM 39.9 °F 30.5 °F 37.0 °F 89% 29.96 in 10.0 mi NNW 19.6 mph 26.5 mph N/A   Overcast
3:53 AM 37.0 °F 26.4 °F 33.1 °F 86% 30.01 in 10.0 mi NNW 20.7 mph - N/A   Overcast
4:22 AM 35.6 °F 24.0 °F 30.2 °F 81% 30.01 in 10.0 mi North 23.0 mph 29.9 mph N/A   Overcast
4:53 AM 36.0 °F 25.6 °F 30.0 °F 79% 30.04 in 10.0 mi North 18.4 mph 25.3 mph N/A   Overcast
5:01 AM 35.6 °F 25.9 °F 30.2 °F 81% 30.02 in 10.0 mi North 16.1 mph - N/A   Overcast
5:43 AM 35.6 °F 27.5 °F 30.2 °F 81% 30.05 in 3.0 mi North 11.5 mph - 0.00 in Snow Light Snow
5:48 AM 33.8 °F 26.4 °F 30.2 °F 87% 30.05 in 1.8 mi North 9.2 mph - 0.01 in Snow Light Snow
5:53 AM 34.0 °F 26.0 °F 30.9 °F 89% 30.09 in 1.2 mi North 10.4 mph - 0.01 in Snow Light Snow
6:36 AM 33.8 °F 23.5 °F 30.2 °F 87% 30.08 in 1.5 mi NNW 16.1 mph 20.7 mph 0.03 in Snow Light Snow
6:38 AM 33.8 °F 24.8 °F 30.2 °F 87% 30.09 in 1.2 mi NNW 12.7 mph 20.7 mph 0.04 in Snow Light Snow
6:42 AM 33.8 °F 24.3 °F 30.2 °F 87% 30.09 in 0.8 mi NNW 13.8 mph - 0.04 in Snow Light Snow
6:53 AM 33.1 °F 23.0 °F 30.0 °F 89% 30.13 in 0.5 mi NNW 15.0 mph - 0.05 in Fog , Snow Snow
7:01 AM 32.0 °F 20.8 °F 30.2 °F 93% 30.10 in 0.5 mi NNW 17.3 mph - 0.00 in Fog , Snow Snow
7:23 AM 32.0 °F 21.6 °F 28.4 °F 87% 30.10 in 1.0 mi NNW 15.0 mph - 0.00 in Snow Light Snow
7:36 AM 32.0 °F 21.6 °F 28.4 °F 87% 30.11 in 2.5 mi North 15.0 mph - 0.00 in Snow Light Snow
7:43 AM 32.0 °F 23.0 °F 28.4 °F 87% 30.11 in 2.5 mi North 11.5 mph - 0.00 in Snow Light Snow
7:53 AM 32.0 °F 23.6 °F 28.9 °F 88% 30.16 in 2.0 mi North 10.4 mph - 0.00 in Snow Light Snow
8:00 AM 32.0 °F 24.8 °F 28.4 °F 87% 30.12 in 3.0 mi North 8.1 mph - 0.00 in Snow Light Snow
8:08 AM 32.0 °F 24.8 °F 28.4 °F 87% 30.12 in 5.0 mi North 8.1 mph - 0.00 in Snow Light Snow
8:40 AM 32.0 °F 23.0 °F 28.4 °F 87% 30.13 in 1.8 mi NNW 11.5 mph - 0.00 in Snow Light Snow
8:53 AM 32.0 °F 20.8 °F 28.9 °F 88% 30.18 in 1.8 mi NNW 17.3 mph - 0.00 in Snow Light Snow
8:59 AM 33.8 °F 23.5 °F 28.4 °F 81% 30.13 in 2.5 mi North 16.1 mph - 0.00 in Snow Light Snow
9:02 AM 33.8 °F 23.9 °F 28.4 °F 81% 30.13 in 3.0 mi North 15.0 mph - 0.00 in Snow Light Snow
9:23 AM 33.8 °F 23.2 °F 28.4 °F 81% 30.14 in 1.8 mi NNW 17.3 mph 20.7 mph 0.00 in Snow Light Snow
9:53 AM 32.0 °F 21.6 °F 28.9 °F 88% 30.20 in 1.5 mi NNW 15.0 mph - 0.00 in Snow Light Snow
10:01 AM 32.0 °F 21.2 °F 28.4 °F 87% 30.15 in 1.0 mi North 16.1 mph - 0.00 in Snow Light Snow
10:10 AM 32.0 °F 22.1 °F 28.4 °F 87% 30.15 in 1.0 mi NNW 13.8 mph - 0.00 in Snow Light Snow
10:53 AM 32.0 °F 21.6 °F 28.9 °F 88% 30.22 in 1.2 mi NNW 15.0 mph - 0.01 in Snow Light Snow
11:06 AM 30.2 °F 20.8 °F 28.4 °F 93% 30.17 in 0.5 mi NNW 11.5 mph - 0.00 in Fog , Snow Snow
11:39 AM 33.8 °F 23.9 °F 30.2 °F 87% 30.17 in 1.0 mi NNW 15.0 mph - 0.01 in Snow Light Snow
11:53 AM 34.0 °F 24.2 °F 30.0 °F 85% 30.22 in 1.8 mi NNW 15.0 mph - 0.01 in Snow Light Snow
11:56 AM 33.8 °F 24.8 °F 30.2 °F 87% 30.17 in 2.0 mi NNW 12.7 mph - 0.00 in Snow Light Snow
12:18 PM 35.6 °F 27.5 °F 30.2 °F 81% 30.16 in 3.0 mi NNW 11.5 mph - 0.00 in Snow Light Snow
12:27 PM 35.6 °F 27.1 °F 30.2 °F 81% 30.16 in 4.0 mi NNW 12.7 mph - 0.00 in Snow Light Snow
12:37 PM 33.8 °F 25.3 °F 30.2 °F 87% 30.16 in 2.0 mi NW 11.5 mph - 0.00 in Snow Light Snow
12:46 PM 35.6 °F 27.5 °F 30.2 °F 81% 30.16 in 6.0 mi NNW 11.5 mph - 0.00 in Snow Light Snow
12:53 PM 36.0 °F 28.5 °F 30.0 °F 79% 30.21 in 8.0 mi NW 10.4 mph - 0.00 in Snow Light Snow
1:53 PM 37.0 °F 28.9 °F 28.9 °F 73% 30.20 in 10.0 mi NW 12.7 mph - 0.00 in   Overcast
2:53 PM 37.0 °F 28.9 °F 28.0 °F 70% 30.22 in 10.0 mi North 12.7 mph - 0.00 in   Overcast
3:10 PM 37.4 °F 29.8 °F 26.6 °F 65% 30.16 in 10.0 mi NNW 11.5 mph - N/A   Overcast
3:34 PM 37.4 °F 29.8 °F 26.6 °F 65% 30.16 in 9.0 mi North 11.5 mph - N/A   Overcast
3:44 PM 37.4 °F 29.3 °F 26.6 °F 65% 30.16 in 10.0 mi North 12.7 mph 19.6 mph N/A   Overcast
3:53 PM 37.0 °F 29.3 °F 28.0 °F 70% 30.22 in 6.0 mi NNW 11.5 mph - 0.00 in Snow Light Snow
4:53 PM 37.0 °F 31.0 °F 26.1 °F 65% 30.21 in 10.0 mi NNE 8.1 mph - 0.00 in   Overcast
5:53 PM 37.0 °F 29.8 °F 25.0 °F 62% 30.23 in 10.0 mi North 10.4 mph - N/A   Overcast
6:53 PM 37.0 °F 29.3 °F 23.0 °F 57% 30.23 in 10.0 mi North 11.5 mph - N/A   Overcast
7:53 PM 36.0 °F 30.3 °F 23.0 °F 59% 30.24 in 10.0 mi North 6.9 mph - N/A   Overcast
8:53 PM 35.1 °F 28.6 °F 23.0 °F 61% 30.27 in 10.0 mi NNW 8.1 mph - N/A   Mostly Cloudy
9:53 PM 35.1 °F 27.9 °F 21.9 °F 59% 30.29 in 10.0 mi NNW 9.2 mph - N/A   Overcast
10:53 PM 35.1 °F 25.5 °F 21.9 °F 59% 30.30 in 10.0 mi North 15.0 mph - N/A   Overcast
11:53 PM 32.0 °F 22.1 °F 21.0 °F 64% 30.32 in 10.0 mi NNE 13.8 mph - N/A   Overcast